FENGYUN 1C DEB, 35202

Orbit data source: Space-Track

FENGYUN 1C DEB, 35202 is space debris in SSO originally from a launch on Mon, 10 May 1999 UTC launched from the Taiyaun Space Center, China (TSC). Fengyun 1C debris stems from the Chinese weather satellite Fengyun-1C, which was intentionally destroyed by a Chinese anti-satellite missile in 2007. This event dramatically increased the amount of space debris, with thousands of trackable fragments posing hazards to satellites and human spaceflight. The Fengyun 1C debris cloud has become a focal point in discussions about space sustainability and the need for international regulations to prevent the creation of new debris.

Loading next visibility...
Identifier
35202, 1999-025DPJ
Orbit
SSO
Country
Flag of CNCN / PRC
Related business
Manufacturer
Unknown
Mission
Spacecraft
Bus & Motor
Unknown
Mass
Unknown
Launch date (UTC)
1999-05-10 (27 years ago)
Launch vehicle
Unknown
Launch site
Taiyaun Space Center, China (TSC)
Object type
Payload
Rocket body
Debris
Shape & HBR
Unknown shape, 0.1 m
Radar Cross Section
Medium (>0.1 m² and <1 m²)

Expand to show TLE details & history
Last TLE update: 15 hours ago

TLE from 15 hours ago
0 FENGYUN 1C DEB
1 35202U 99025DPJ 26254.07548091  .00000196  00000-0  31381-3 0  9995
2 35202 100.0681 300.7526 0379200  77.5358 286.7915 13.35075416606105
Epoch: 2026-09-11T01:48Z
TLE epoch observation values (Epoch: 2026-09-11T01:48:41.550Z)
Latitude
-0.00003°
Longitude
-76.52456°
Altitude
1,058.247 km
Speed
7.358 km/s
True Right ascension
20h 03m 00s
True Declination
0° 00' 00"
Sunlit
Object was in full shadow at epoch
Visualization orbit readout
Latitude
Unknown
Longitude
Unknown
Altitude
Unknown
Speed
Unknown
Apparent Right ascension
Unknown
Apparent Declination
Unknown
Sunlit
N/A
Visualization observer readout
Local Sidereal Time
09:13:53
Azimuth
Unknown
Elevation
Unknown
Doppler factor
Unknown
Orbital elements
Apogee altitude
1,409.534 km
Perigee altitude
840.495 km
Semi-major axis
7,503.152 km
Eccentricity
0.03792
Inclination
100.0681°
RAAN
300.7526°
Arg. of periapsis
77.5358°
True anomaly
282.57755°
Mean anomaly
286.7915°
Eccentric anomaly
284.68986°
Mean motion
3.33947 °/min
Orbital period
107.8 mins
BSTAR
0.00031381
Loading maneuver chart data...
Computing Atmospheric mass density...

Documentation

Showing up to 5 results
|